Location: Asheville, NC
(35.6000°N, 82.5500°W)
Time: 00:19:00
(UTC-04:00)

ZACube-1 - Pass Details

Date: 15 March 2018
Orbit: 584 x 668 km, 97.6° (Epoch: 22 June)

Event Time Altitude Azimuth Distance (km) Brightness Sun altitude
Rises 21:47:32 0° 207° (SSW) 2,885 ? -26.8°
Reaches altitude 10° 21:50:33 10° 230° (SW) 1,966 ? -27.4°
Maximum altitude 21:53:04 15° 266° (W) 1,634 ? -27.9°
Drops below altitude 10° 21:55:34 10° 303° (WNW) 1,946 ? -28.3°
Sets 21:58:33 0° 326° (NNW) 2,839 ? -28.9°
